Regional Weather Roundup
Issued by NWS

Home | Current Version | Previous Version | Text Only | Print | Product List | Glossary Off
Versions: 1 2 3 4 5 6 7 8 9 10 11 12 13 14 15 16 17 18 19 20 21 22 23 24 25 26 27

000
ASUS45 KBOU 200807
RWRCO

WEATHER ROUNDUP FOR COLORADO
NATIONAL WEATHER SERVICE DENVER/BOULDER CO
200 AM MDT WED SEP 20 2017

NOTE: "FAIR" INDICATES FEW OR NO CLOUDS BELOW 12000 FEET WITH NO
SIGNIFICANT WEATHER AND/OR OBSTRUCTIONS TO VISIBILITY.

COZ001>005-013-030-031-200900-
...NORTHWEST COLORADO...

CITY           SKY/WX    TMP DP  RH WIND       PRES   REMARKS
CRAIG          FAIR      40  36  86 E5        30.04S
HAYDEN         LGT RAIN  38  35  89 SE8       30.07R
MEEKER         CLOUDY    41  38  89 W3        30.03R
RABBIT EARS PA FOG       28  28 100 W10G16    30.10S VSB 1   WCI  19
STEAMBOAT SPGS CLOUDY    34  33  99 CALM      30.07R
WALDEN         CLOUDY    34  32  93 E3        30.06S
$$

COZ006>008-011-200900-
...WEST CENTRAL VALLEYS...

CITY           SKY/WX    TMP DP  RH WIND       PRES   REMARKS
GRAND JUNCTION FAIR      58  36  43 CALM      29.89R
MONTROSE       FAIR      56  30  37 S8        29.96R
EAGLE          FAIR      48  32  53 NW9       29.99R
RIFLE          CLOUDY    52  37  56 CALM      29.96R
DELTA          FAIR      58  30  34 E3        29.90R
NUCLA          FAIR      55  27  33 SE8       30.00R
$$

COZ017>023-064>068-200900-
...SOUTHWEST COLORADO...

CITY           SKY/WX    TMP DP  RH WIND       PRES   REMARKS
DURANGO        FAIR      45  28  51 VRB7      30.06R
CORTEZ         FAIR      57  23  26 CALM      30.00R
PAGOSA SPRINGS FAIR      44  25  48 CALM      30.11S
TELLURIDE      FAIR      53  21  29 CALM      30.19R
WOLF CREEK PAS FAIR      36  16  44 SW23G33   30.32R
$$

COZ009-010-012-014-032>034-037-058>063-200900-
...CENTRAL COLORADO...

CITY           SKY/WX    TMP DP  RH WIND       PRES   REMARKS
ASPEN          CLOUDY    55  31  39 N8        29.98R
BUENA VISTA    FAIR      61  22  22 E7G23     30.00R
COPPER MTN     MOCLDY    45  23  42 W16G24    30.21R
BERTHOUD PASS  FAIR      36  28  75 W39G60    30.15S
COTTONWOOD PAS FAIR      55  19  24 SW35G54   30.04F
GUNNISON       FAIR      41  24  51 NE6       30.04R
KREMMLING      FAIR      45  34  65 CALM      30.04F
LEADVILLE      FAIR      48  22  35 S15G22    30.08S
MONARCH PASS   FAIR      39  19  45 W36G44    30.34R
SALIDA         FAIR      62  19  19 SW8G25    30.06R
SUNLIGHT       MOCLDY    39  28  65 SW15G24   30.17R
WILKERSON PASS FAIR      43  19  39 SW13G26   30.19R
$$

COZ069>075-200900-
...SAN LUIS VALLEY/SANGRE DE CRISTO MOUNTAINS...

CITY           SKY/WX    TMP DP  RH WIND       PRES   REMARKS
ALAMOSA        FAIR      45  24  43 S8        30.05R
DEL NORTE      FAIR      46  21  36 CALM      30.07R
LA VETA PASS   FAIR      48  16  27 S28G40    30.26R
SAGUACHE       FAIR      37  28  70 N3        30.06S
$$

COZ035-036-038>040-200900-
...NORTHERN COLORADO FRONT RANGE...

CITY           SKY/WX    TMP DP  RH WIND       PRES   REMARKS
DENVER INTL AP FAIR      41  28  60 SE14      29.89S
DMNS CITY PARK   N/A     48  31  51 E10G16    29.91R
AURORA         CLEAR     41  29  63 SE8       29.91R
FRONT RANGE AP FAIR      43  32  65 SE12      29.91R
ERIE MUNI ARPT FAIR      44  31  60 CALM      29.95R
BOULDER MUN AP FAIR      46  32  57 CALM      29.90R
CENTENNIAL     FAIR      46  30  53 SE9       29.90R
BROOMFIELD     FAIR      46  32  57 S5        29.91R
FORT COLLINS   FAIR      46  33  60 S6        29.90R
LONGMONT       FAIR      50  32  50 E3        29.91R
$$

COZ041-046-047-076>085-087-088-200900-
...PIKES PEAK/PALMER DIVIDE AND SOUTHERN FOOTHILLS...

CITY           SKY/WX    TMP DP  RH WIND       PRES   REMARKS
COLO. SPRINGS  FAIR      45  31  58 NE6       29.95R
A. F. ACADEMY  FAIR      42  29  61 CALM      29.93R
SCHRIEVER AFB  FAIR      44  29  56 MISG      29.94R
CHEYENNE MTN   NOT AVBL
ELLICOTT         N/A    N/A N/A N/A E16       29.92R
FALCON         FAIR      39  28  65 NE6       29.97R
FORT CARSON    FAIR      46  31  56 S16       29.94R
LIMON          FAIR      43  32  65 N10       29.92R
MONUMENT HILL  FAIR      37  30  75 SE12      29.95R
CANON CITY     CLEAR     50  34  53 N7        29.94R
WALSENBURG     NOT AVBL
TRINIDAD       FAIR      51  34  52 NE13G24   29.95R
$$

COZ042>045-048>051-090-091-200900-
...NORTHEAST COLORADO...

CITY           SKY/WX    TMP DP  RH WIND       PRES   REMARKS
GREELEY ARPT   FAIR      47  37  68 NW7       29.88F
AKRON          FAIR      44  28  53 NW13      29.90R
BURLINGTON     FAIR      44  32  62 NW9       29.89R
WRAY           FAIR      45  32  61 W6        29.88R
YUMA           FAIR      41  32  70 CALM      29.89R
STERLING       FAIR      41  32  70 CALM      29.87R
HOLYOKE        NOT AVBL
FORT MORGAN    FAIR      49  30  48 NW8       29.90R
$$

COZ086-089-092>099-200900-
...SOUTHEAST COLORADO...

CITY           SKY/WX    TMP DP  RH WIND       PRES   REMARKS
PUEBLO         FAIR      49  31  49 S7        29.94R
LA JUNTA       FAIR      51  31  46 E7        29.92R
LAMAR          FAIR      52  32  46 E3        29.87R
SPRINGFIELD      N/A     52  36  54 N16       29.90R
$$




USA.gov is the U.S. government's official web portal to all federal, state and local government web resources and services.